Volver al catálogo

FENGYUN 1C DEB

ActivoPO
NORAD 35243·DEBRIS·🇨🇳 China

Lanzado May 10, 1999 desde Taiyuan Satellite Launch Center

Loading…

Próximos Pases (próximas 24 horas)

TLE

ActualizadoSource: Space-Track

Época: Sep 13, 2026, 13:55 UTC

1 35243U 99025DRB 26256.58007235  .00018264  00000-0  14871-2 0  9997
2 35243  98.8780  15.4765 0051346  90.7954 269.9149 14.98547186951020

Sigue FENGYUN 1C DEB en tiempo real con AllMySat

Download on the App Store